Location: Shenandoah County Park
(38.9356°N, 78.4524°W)
Time: 22:12:59
(UTC-05:00)

Vanguard 2 Rocket - Visible Passes

Search period start: 30 November 2023 00:00
Search period end: 10 December 2023 00:00
Orbit: 553 x 3312 km, 32.9° (Epoch: 30 November)

Date Brightness Start Highest point End Pass type
(mag) Time Alt. Az. Time Alt. Az. Time Alt. Az.
30 Nov 9.6 17:36:13 10° WSW 17:56:30 71° S 18:10:50 13° E visible
30 Nov 8.9 19:54:50 10° W 20:13:23 62° SSW 20:16:28 54° SSE visible
30 Nov 10.1 22:14:56 10° W 22:22:07 24° WSW 22:22:07 24° WSW visible
01 Dec 9.4 18:50:06 10° W 19:10:00 69° S 19:18:29 32° ESE visible
01 Dec 9.4 21:09:32 10° W 21:24:09 42° SW 21:24:09 42° SW visible
02 Dec 9.6 17:45:44 10° W 18:06:03 72° S 18:20:35 14° ESE visible
02 Dec 9.2 20:04:28 10° W 20:22:43 55° SSW 20:26:14 47° SSE visible
02 Dec 10.3 22:25:27 10° W 22:31:53 20° WSW 22:31:53 20° WSW visible
03 Dec 9.5 18:59:42 10° W 19:19:27 64° SSW 19:28:22 30° SE visible
03 Dec 9.7 21:19:28 10° W 21:34:02 35° SW 21:34:02 35° SW visible
04 Dec 9.7 17:55:21 10° W 18:15:35 70° S 18:30:36 12° ESE visible
04 Dec 9.4 20:14:10 10° W 20:31:51 47° SSW 20:36:16 39° S visible
04 Dec 10.5 22:37:02 10° W 22:41:56 15° WSW 22:41:56 15° WSW visible
05 Dec 9.9 16:51:29 10° W 17:11:18 73° S 17:28:52 10° ESE visible
05 Dec 9.7 19:09:21 10° W 19:28:44 57° SSW 19:38:36 25° SE visible
05 Dec 10.0 21:29:49 10° W 21:43:01 27° SW 21:44:16 26° SW visible
06 Dec 9.8 18:04:59 10° W 18:25:00 66° SSW 18:40:53 10° ESE visible
06 Dec 9.8 20:24:04 10° W 20:40:44 38° SW 20:46:43 29° S visible
07 Dec 9.9 17:01:08 10° W 17:20:47 71° S 17:38:30 10° ESE visible
07 Dec 9.9 19:19:04 10° W 19:37:49 49° SSW 19:49:18 18° SSE visible
07 Dec 10.3 21:41:00 10° W 21:51:35 19° SW 21:55:00 18° SW visible
08 Dec 9.9 18:14:40 10° W 18:34:15 59° SSW 18:50:14 10° SE visible
08 Dec 10.2 20:34:19 10° W 20:49:26 30° SW 20:57:43 18° S visible
09 Dec 10.0 17:10:49 10° W 17:30:11 67° SSW 17:48:00 10° ESE visible
09 Dec 10.2 19:28:57 10° W 19:46:41 41° SW 20:00:32 10° SSE visible
09 Dec 10.7 21:54:26 10° WSW 22:00:04 12° SW 22:05:05 10° SW visible
